CAPE
179 32 14 0 0 0 0 0 0 0 0 0 0 15 33 70 82 130 200 107 7 0 125 716 1172 1431 1274 804 441 283 226 203 180 135 55 1 0 0 0 0 0 0 0
134 67 22 10 0 0 0 0 0 0 0 0 0 0 0 0 2 37 70 144 92 21 3 153 956 1320 1588 1428 803 432 319 248 195 161 89 18 0 0 0 0 0 0 0
208 124 25 6 0 0 8 0 0 0 0 0 3 0 9 6 0 0 17 31 48 20 0 5 56 504 1009 1443 1384 916 623 408 262 188 102 26 0 0 0 0 0 0 0
193 211 24 12 0 0 8 0 0 0 0 0 0 0 0 0 0 0 0 0 0 2 0 0 0 10 112 477 918 1258 1179 769 538 400 294 209 156 90 32 7 0 0 0
105 154 9 0 2 0 0 0 0 0 0 0 0 0 0 0 0 0 0 0 5 6 0 0 0 0 0 12 201 598 951 1066 944 655 427 323 249 222 178 83 3 0 0
90 131 29 0 0 0 0 0 0 0 0 0 0 0 0 0 0 0 0 0 0 0 0 0 26 47 0 0 0 121 433 821 978 1051 929 649 479 359 216 131 52 0 1
137 147 42 23 62 6 0 0 0 0 0 0 0 0 0 2 47 50 27 36 17 3 7 110 309 230 67 0 0 0 57 444 781 916 890 927 809 684 534 390 225 78 46
306 216 214 45 39 19 41 72 46 0 0 0 2 0 0 1 15 247 223 189 420 76 56 163 295 352 364 281 305 71 24 125 407 581 567 566 607 558 486 406 265 159 140
380 490 231 264 345 123 25 351 158 74 0 0 82 13 15 5 0 57 461 384 318 357 315 192 227 320 423 481 201 92 13 2 4 123 201 215 216 201 224 187 104 98 148
572 620 819 562 709 356 320 338 190 301 129 27 66 140 546 137 26 17 75 187 319 324 348 302 138 295 252 231 112 60 80 27 0 0 0 9 38 41 46 92 91 81 120
662 398 609 718 925 870 768 679 596 684 220 247 136 122 167 169 428 268 68 13 116 440 516 464 442 414 365 355 315 120 48 0 0 0 0 0 0 0 21 152 151 106 73
472 471 486 997 1173 889 852 589 586 473 447 393 223 244 97 34 120 100 256 351 258 439 430 677 876 658 573 526 230 53 26 8 0 0 0 0 0 2 174 212 141 28 55
378 510 573 941 868 1071 808 619 702 718 691 489 720 244 239 259 33 15 145 492 490 587 625 886 860 734 512 601 555 153 51 28 0 0 0 0 0 159 241 268 153 104 42
615 807 780 651 666 579 650 745 764 715 714 839 518 627 158 120 189 259 367 524 1025 886 924 1129 1123 1140 885 678 544 353 260 82 8 0 0 0 94 244 328 319 235 127 54
1001 1011 922 683 542 574 645 713 683 678 612 842 1045 910 663 526 916 809 805 844 875 1107 1150 1318 1391 1405 1292 852 543 525 642 603 243 42 0 5 187 306 405 387 253 117 78
693 785 864 914 856 770 779 814 762 646 875 998 780 923 826 879 1034 1060 1140 1234 1162 1087 1226 1113 1336 1609 1509 891 529 408 484 748 665 265 101 70 242 348 460 472 375 183 95
848 714 814 912 872 953 989 1035 954 725 677 703 909 1015 988 893 1025 1216 1290 1199 1069 1014 765 951 1084 1419 1710 1612 1092 300 392 660 668 455 225 205 174 367 474 548 413 181 69
748 792 688 938 944 745 878 879 1030 852 790 682 824 801 633 781 1090 1344 1246 1339 1184 1179 870 616 943 1234 1406 1360 1109 1033 339 468 714 520 362 227 253 243 388 546 384 174 71
422 522 900 533 688 908 648 693 996 1315 1257 1084 1167 901 643 505 446 551 658 1038 1036 839 889 1010 1151 920 1009 1356 566 495 473 668 520 565 353 308 343 199 294 418 523 224 175
13 332 488 514 610 579 594 817 818 781 940 635 787 581 440 271 367 480 551 754 803 1041 993 711 745 825 754 658 460 643 729 603 501 434 488 414 313 220 187 263 393 478 261
0 0 7 38 34 213 423 539 544 496 274 265 196 109 49 23 80 198 445 831 1092 888 871 997 1047 854 711 619 773 725 563 584 589 563 393 492 515 369 239 221 297 408 255
0 0 0 0 0 0 0 42 104 133 164 220 140 62 60 35 2 152 184 517 722 964 1066 958 726 634 550 654 671 829 521 567 447 623 610 431 519 558 436 347 457 322 249
0 0 0 1 0 0 0 0 0 0 24 62 74 297 330 189 294 452 547 610 661 868 979 907 803 995 1110 865 809 841 779 507 562 665 811 705 727 601 307 451 331 291 284
0 0 0 0 1 0 0 0 0 0 0 0 16 19 8 81 113 193 142 256 319 446 530 745 781 691 776 927 774 758 746 759 674 514 803 514 610 644 599 499 291 206 247
0 0 0 0 0 0 0 2 0 0 0 0 0 6 8 5 5 0 0 0 0 0 0 25 269 209 415 543 646 653 594 783 363 349 441 661 478 605 715 356 285 307 103
0 0 0 0 0 0 0 0 0 0 0 0 0 0 0 0 0 0 0 0 0 0 0 0 0 0 0 0 103 418 644 522 416 335 473 698 583 455 473 311 559 420 256
CIN
-130 -187 -190 0 0 0 0 0 0 0 0 0 0 -102 -125 -114 -104 -78 -55 -116 -87 0 -279 -123 -55 -28 -34 -75 -124 -145 -144 -147 -140 -147 -181 -96 0 0 0 0 0 0 0
-139 -167 -232 -248 0 0 0 0 0 0 0 0 0 0 0 0 -69 -184 -137 -112 -206 -258 -93 -270 -97 -48 -20 -24 -73 -115 -120 -141 -148 -148 -178 -251 0 0 0 0 0 0 0
-131 -165 -223 -305 0 0 -290 0 0 0 0 0 -224 -4 -272 -297 0 0 -266 -226 -199 -263 0 -280 -392 -172 -77 -25 -22 -49 -66 -89 -124 -163 -189 -215 0 0 0 0 0 0 0
-134 -133 -240 -265 0 0 -296 0 0 0 0 0 0 0 0 0 0 0 0 0 0 -60 0 0 0 -489 -368 -177 -87 -33 -33 -65 -84 -89 -102 -108 -101 -117 -158 -195 0 0 0
-246 -175 -193 0 -129 0 0 0 0 0 0 0 0 0 0 0 0 0 0 0 -335 -327 0 0 0 0 0 -299 -324 -169 -94 -55 -59 -85 -99 -105 -102 -88 -82 -119 -107 0 0
-312 -236 -297 0 0 0 0 0 0 0 0 0 0 0 0 0 0 0 0 0 0 0 0 0 -312 -186 0 0 0 -439 -244 -134 -93 -70 -63 -81 -91 -106 -140 -137 -156 -63 -41
-320 -296 -350 -364 -290 -322 0 -1 0 0 0 0 0 0 0 -249 -249 -238 -273 -240 -287 -229 -321 -203 -152 -169 -283 -2 0 -2 -503 -252 -147 -108 -99 -72 -67 -83 -92 -86 -84 -113 -134
-287 -295 -291 -360 -362 -366 -323 -257 -280 -81 0 0 -357 0 0 -163 -173 -144 -152 -149 -116 -179 -196 -173 -166 -157 -159 -161 -210 -333 -378 -463 -279 -196 -171 -141 -107 -98 -96 -91 -94 -92 -79
-318 -270 -324 -269 -192 -288 -378 -182 -230 -276 0 0 -247 -162 -274 -283 0 -149 -134 -136 -136 -136 -140 -143 -147 -154 -145 -124 -211 -291 -452 -236 -74 -423 -310 -268 -243 -217 -172 -153 -159 -140 -100
-265 -257 -225 -236 -167 -221 -230 -201 -244 -184 -225 -305 -224 -220 -107 -144 -191 -183 -155 -145 -156 -163 -167 -139 -136 -159 -143 -150 -274 -324 -270 -399 0 0 0 -588 -435 -393 -340 -103 -69 -110 -95
-206 -274 -205 -179 -179 -172 -159 -155 -124 -105 -177 -154 -147 -174 -183 -168 -112 -104 -187 -151 -97 -123 -136 -143 -153 -144 -141 -142 -140 -254 -341 0 0 0 0 0 0 0 -255 -73 -65 -104 -121
-196 -192 -204 -131 -123 -143 -175 -198 -140 -128 -134 -107 -139 -95 -158 -178 -161 -127 -106 -136 -93 -93 -79 -93 -107 -177 -173 -141 -201 -286 -269 -285 0 0 0 0 0 -55 -96 -59 -66 -113 -109
-216 -161 -149 -99 -128 -106 -135 -139 -101 -105 -101 -116 -89 -153 -112 -113 -181 -188 -100 -111 -78 -99 -67 -91 -91 -130 -165 -141 -143 -233 -266 -274 0 0 0 0 0 -159 -102 -75 -75 -94 -131
-114 -92 -97 -126 -121 -129 -107 -99 -99 -118 -103 -75 -132 -98 -167 -148 -117 -87 -56 -23 -17 -37 -46 -68 -71 -50 -107 -119 -120 -93 -102 -162 -156 0 0 0 -246 -143 -107 -84 -78 -99 -140
-33 -52 -82 -123 -141 -136 -120 -97 -102 -110 -130 -96 -78 -89 -78 -84 -41 -40 -25 -10 0 0 -20 -27 -11 -2 -31 -74 -123 -86 -52 -80 -140 -199 0 -66 -226 -140 -84 -79 -82 -121 -118
-35 -64 -68 -66 -70 -96 -73 -55 -71 -109 -53 -51 -81 -68 -72 -52 -38 -21 -2 -1 -1 0 0 -29 -28 0 -1 -45 -92 -123 -80 -46 -71 -144 -183 -280 -187 -124 -77 -51 -64 -104 -137
0 -35 -34 -53 -73 -58 -48 -44 -48 -69 -84 -81 -53 -42 -41 -35 -18 -3 -4 -15 -19 -14 -23 -54 -23 -27 -13 -1 -9 -96 -50 -47 -71 -97 -158 -179 -199 -114 -71 -40 -45 -99 -168
0 0 0 -19 -34 -71 -46 -39 -28 -54 -63 -96 -73 -58 -63 -24 -1 0 -1 -1 -10 -20 -26 -52 -32 -13 -17 -3 -10 -8 -56 -39 -34 -49 -51 -96 -95 -100 -78 -39 -62 -125 -147
-7 -10 0 -23 -35 -11 -54 -43 -8 -3 -10 -13 -4 -30 -69 -81 -67 -16 -1 0 -2 -26 -44 -19 -8 -13 -18 -3 -61 -58 -49 -19 -34 -37 -42 -48 -61 -106 -68 -48 -38 -86 -86
0 -6 -4 -8 -11 -12 -16 -2 -1 -1 -5 -13 -4 -14 -64 -138 -67 -12 -4 -3 -3 -5 -19 -24 -23 -13 -13 -8 -36 -32 -30 -23 -26 -34 -28 -38 -42 -61 -97 -64 -18 -4 -7
0 0 0 -11 -97 -11 -7 -2 -11 -2 -22 -9 -18 -5 -32 -108 -247 -180 -4 0 -1 -3 -1 0 -1 -2 -1 -11 -23 -17 -14 -12 -34 -24 -48 -12 -5 -22 -56 -75 -17 0 -3
0 0 0 0 0 0 0 -76 -22 -35 -27 -9 -33 -223 -4 -55 -12 -42 -15 -3 -5 0 0 0 0 -2 -9 -22 -30 -2 -4 -1 -13 -12 -20 -5 -4 -12 -16 -29 -6 0 -8
0 0 -1 0 0 0 0 0 0 0 -11 -4 0 -4 -4 -5 -3 -16 -5 -9 -20 -13 -1 0 0 0 0 0 -1 0 0 -20 -3 -2 0 -1 -4 -3 -31 -12 -16 -8 -8
0 0 0 0 -3 -1 0 0 0 0 0 0 -18 -16 -46 -23 -38 -39 -52 -38 -7 -1 -11 -3 -1 -8 -3 0 0 0 -1 0 -1 -11 0 -8 -8 -3 -5 -5 -12 -29 -8
0 0 0 0 0 0 -1 -2 0 0 0 0 0 -18 0 -10 -10 0 0 0 0 0 0 -16 -15 -50 -24 -6 0 0 0 0 -10 -40 -15 0 -22 -6 0 -10 -8 -14 -40
0 0 0 0 0 0 0 0 0 0 0 0 0 0 0 0 0 0 0 0 0 0 0 0 0 0 0 0 -115 -12 -1 0 -1 -15 -11 0 0 -2 -1 -16 -1 -5 -4
Wind_Speed
6 nan nan nan nan nan nan nan nan nan nan nan nan nan nan nan nan 1 2 11 nan nan 13 16 16 16 16 15 15 14 14 15 15 16 nan nan nan nan nan nan nan nan nan
8 nan nan nan nan nan nan nan nan nan nan nan nan nan nan nan nan nan nan 3 nan nan nan 11 13 14 14 15 14 14 14 15 15 15 nan nan nan nan nan nan nan nan nan
6 6 nan nan nan nan nan nan nan nan nan nan nan nan nan nan nan nan nan nan nan nan nan nan nan 11 12 12 13 15 16 16 17 17 18 nan nan nan nan nan nan nan nan
5 6 nan nan nan nan nan nan nan nan nan nan nan nan nan nan nan nan nan nan nan nan nan nan nan nan 12 14 14 14 16 17 19 20 21 22 23 nan nan nan nan nan nan
7 6 nan nan nan nan nan nan nan nan nan nan nan nan nan nan nan nan nan nan nan nan nan nan nan nan nan nan 19 19 19 19 20 22 22 24 26 27 27 nan nan nan nan
nan 7 nan nan nan nan nan nan nan nan nan nan nan nan nan nan nan nan nan nan nan nan nan nan nan nan nan nan nan 22 22 23 24 25 26 26 28 28 29 31 nan nan nan
10 9 nan nan nan nan nan nan nan nan nan nan nan nan nan nan nan nan nan nan nan nan nan 9 12 15 nan nan nan nan nan 21 23 25 27 28 29 32 32 34 36 nan nan
11 11 11 nan nan nan nan nan nan nan nan nan nan nan nan nan nan 11 10 10 9 nan nan 13 14 15 15 16 21 nan nan 23 24 26 27 29 30 30 32 35 37 39 41
18 14 13 14 17 17 nan 17 16 nan nan nan nan nan nan nan nan nan 19 18 19 22 24 23 20 20 19 18 18 nan nan nan nan 27 29 31 32 33 35 36 40 nan 43
21 22 19 20 20 23 19 21 24 22 22 nan nan 22 17 24 nan nan nan 28 27 26 27 27 29 27 21 21 20 nan nan nan nan nan nan nan nan nan nan nan nan nan 43
31 27 27 27 26 28 25 24 25 28 29 29 28 32 29 28 26 26 nan nan 30 31 31 30 28 28 27 26 24 24 nan nan nan nan nan nan nan nan nan 43 45 45 nan
40 36 33 33 33 33 30 31 31 28 31 32 33 32 nan nan 33 34 30 24 30 28 30 31 32 33 31 31 29 nan nan nan nan nan nan nan nan nan 44 45 44 nan nan
50 47 41 40 42 40 39 40 40 36 34 36 33 37 38 36 nan nan 35 29 32 30 33 31 33 33 34 35 33 35 nan nan nan nan nan nan nan 44 46 45 47 46 nan
54 53 52 47 42 47 49 48 49 47 44 41 36 40 42 42 42 41 38 38 35 36 34 29 34 36 37 39 37 42 38 nan nan nan nan nan nan 46 47 48 47 46 nan
60 56 54 52 50 48 51 55 56 53 52 51 50 47 49 50 49 47 44 43 42 41 39 38 37 39 41 41 42 42 40 44 46 nan nan nan 49 49 49 50 50 49 nan
82 67 61 56 52 52 50 55 61 59 60 60 59 57 58 58 53 54 49 48 48 50 48 44 41 40 45 42 43 44 41 48 48 48 49 nan 52 53 52 51 53 53 nan
88 88 77 63 57 56 58 56 56 61 65 65 63 63 61 62 63 61 58 56 54 55 58 52 48 39 37 40 39 44 41 44 46 46 50 53 54 57 57 52 52 55 nan
79 91 77 81 73 62 65 61 57 62 66 69 69 70 72 77 72 69 68 61 62 59 59 54 50 49 39 39 40 39 46 45 45 50 46 50 56 57 55 54 56 54 nan
94 88 93 91 88 77 68 66 64 61 64 67 72 76 75 77 77 78 75 74 71 63 60 57 51 55 47 48 48 48 46 47 48 50 51 49 51 55 54 51 52 55 57
nan 99 97 89 91 88 82 80 78 73 75 73 72 76 77 85 85 83 80 71 75 77 67 63 53 47 51 44 48 51 54 54 51 53 51 49 51 52 56 56 55 55 58
nan nan nan nan nan 91 91 96 92 82 76 77 71 74 nan nan nan 84 67 74 67 71 61 49 44 42 55 47 45 50 48 51 51 52 52 53 56 54 52 53 55 57 60
nan nan nan nan nan nan nan nan 97 92 87 86 87 nan nan nan nan 72 57 41 66 56 46 52 46 44 40 42 41 46 51 49 43 48 49 47 55 50 54 55 58 60 65
nan nan nan nan nan nan nan nan nan nan nan nan nan 98 89 94 70 74 59 68 50 48 55 45 48 53 48 44 42 44 48 52 46 52 50 47 53 48 52 54 60 64 64
nan nan nan nan nan nan nan nan nan nan nan nan nan nan nan nan 76 81 84 75 69 60 59 57 51 47 45 48 52 43 47 49 54 53 55 54 53 53 58 59 66 66 72
nan nan nan nan nan nan nan nan nan nan nan nan nan nan nan nan nan nan nan nan nan nan nan nan 49 49 48 47 54 54 56 62 52 52 54 63 62 62 61 66 70 73 73
nan nan nan nan nan nan nan nan nan nan nan nan nan nan nan nan nan nan nan nan nan nan nan nan nan nan nan nan 60 55 53 62 73 66 57 62 66 70 66 66 68 68 71
Wind_Direction
238 nan nan nan nan nan nan nan nan nan nan nan nan nan nan nan nan 240 157 320 nan nan 51 49 43 38 35 29 29 31 27 26 23 23 nan nan nan nan nan nan nan nan nan
283 nan nan nan nan nan nan nan nan nan nan nan nan nan nan nan nan nan nan 130 nan nan nan 51 48 42 38 33 24 23 22 19 14 15 nan nan nan nan nan nan nan nan nan
306 296 nan nan nan nan nan nan nan nan nan nan nan nan nan nan nan nan nan nan nan nan nan nan nan 34 33 27 16 10 6 5 3 5 4 nan nan nan nan nan nan nan nan
337 298 nan nan nan nan nan nan nan nan nan nan nan nan nan nan nan nan nan nan nan nan nan nan nan nan 10 12 13 10 3 357 355 357 357 353 350 nan nan nan nan nan nan
354 306 nan nan nan nan nan nan nan nan nan nan nan nan nan nan nan nan nan nan nan nan nan nan nan nan nan nan 2 5 4 359 354 354 355 350 346 345 344 nan nan nan nan
nan 314 nan nan nan nan nan nan nan nan nan nan nan nan nan nan nan nan nan nan nan nan nan nan nan nan nan nan nan 357 359 355 354 352 350 348 344 343 346 343 nan nan nan
289 301 nan nan nan nan nan nan nan nan nan nan nan nan nan nan nan nan nan nan nan nan nan 313 308 310 nan nan nan nan nan 352 347 347 347 344 340 342 342 339 337 nan nan
272 280 291 nan nan nan nan nan nan nan nan nan nan nan nan nan nan 264 256 263 271 nan nan 301 309 314 306 301 317 nan nan 345 344 341 339 336 336 334 332 334 333 331 331
280 274 281 273 272 270 nan 276 279 nan nan nan nan nan nan nan nan nan 268 266 274 280 284 292 298 300 300 303 304 nan nan nan nan 336 333 330 332 332 332 330 324 nan 328
267 277 277 269 264 264 269 266 269 269 266 nan nan 264 242 233 nan nan nan 274 275 278 284 287 291 296 298 299 305 nan nan nan nan nan nan nan nan nan nan nan nan nan 322
260 259 262 264 261 258 259 261 261 269 266 261 259 261 257 254 256 258 nan nan 275 284 283 289 293 294 298 299 300 305 nan nan nan nan nan nan nan nan nan 317 317 318 nan
250 256 260 260 261 259 261 261 260 257 257 256 258 255 nan nan 262 263 263 257 268 270 273 281 291 295 295 294 297 nan nan nan nan nan nan nan nan nan 317 316 314 nan nan
251 251 254 253 256 255 257 259 258 258 258 258 258 259 257 261 nan nan 264 261 260 261 269 275 280 284 287 290 293 299 nan nan nan nan nan nan nan 314 313 314 315 319 nan
244 251 253 258 262 262 260 258 256 259 261 260 263 257 256 256 262 265 264 263 260 263 264 270 270 273 278 282 286 285 293 nan nan nan nan nan nan 313 312 314 315 316 nan
241 243 251 258 261 265 267 267 265 264 263 263 262 264 261 260 258 261 263 263 263 258 259 257 259 265 271 275 283 288 291 298 304 nan nan nan 311 311 312 315 314 314 nan
227 238 247 255 258 261 265 267 265 267 267 266 264 266 267 266 267 267 269 270 272 269 262 267 263 259 267 270 274 283 289 291 300 305 308 nan 309 310 312 313 313 312 nan
220 231 235 248 253 258 261 267 267 264 267 266 267 267 269 269 266 265 266 268 270 272 272 269 273 272 272 276 278 281 283 288 290 302 305 306 305 308 310 310 306 307 nan
235 229 231 234 239 255 260 264 267 266 264 267 268 266 267 265 265 266 261 262 263 266 271 272 271 277 282 276 280 279 282 283 287 291 297 298 302 304 306 305 306 306 nan
236 234 235 234 234 241 253 265 267 262 264 265 266 265 264 265 270 270 265 264 262 262 262 265 265 274 282 284 288 283 281 281 281 279 285 288 297 301 300 300 301 304 307
nan 234 234 236 236 234 242 247 251 254 261 257 259 261 266 265 269 264 258 253 260 257 255 257 262 268 278 291 290 289 286 283 282 280 281 283 287 292 297 300 303 304 304
nan nan nan nan nan 237 240 239 241 242 250 255 261 258 nan nan nan 264 249 249 253 250 255 257 262 273 273 281 288 286 289 280 280 282 282 282 283 285 289 297 300 307 310
nan nan nan nan nan nan nan nan 240 239 241 251 253 nan nan nan nan 269 264 267 255 249 243 250 260 268 273 276 279 283 282 280 275 282 280 284 286 289 293 294 303 305 312
nan nan nan nan nan nan nan nan nan nan nan nan nan 256 260 264 274 277 263 287 277 263 288 275 278 262 267 268 273 280 282 286 288 285 288 281 285 290 291 292 299 303 308
nan nan nan nan nan nan nan nan nan nan nan nan nan nan nan nan 267 269 269 277 282 282 283 284 290 278 278 269 263 275 285 282 274 282 287 282 283 287 286 289 298 304 309
nan nan nan nan nan nan nan nan nan nan nan nan nan nan nan nan nan nan nan nan nan nan nan nan 278 277 277 275 271 262 269 274 276 284 291 283 283 282 281 285 292 302 305
nan nan nan nan nan nan nan nan nan nan nan nan nan nan nan nan nan nan nan nan nan nan nan nan nan nan nan nan 275 282 279 277 276 275 284 291 287 287 288 290 292 296 299